"2012/01/01",  3.9,  4.2,  3.7
"2012/01/02",  4.1,  4.3,  3.9
"2012/01/03",  4.1,  4.3,  3.8
"2012/01/04",  4.1,  4.3,  3.9
"2012/01/05",  4.1,  4.3,  3.9
"2012/01/06",  3.7,  4.1,  3.5
"2012/01/07",  3.6,  3.8,  3.4
"2012/01/08",  3.5,  3.8,  3.2
"2012/01/09",  3.6,  3.9,  3.4
"2012/01/10",  3.7,  4.0,  3.5
"2012/01/11",  4.0,  4.2,  3.8
"2012/01/12",  3.7,  4.2,  3.5
"2012/01/13",  3.3,  3.6,  3.0
"2012/01/14",  3.2,  3.4,  3.0
"2012/01/15",  3.1,  3.4,  2.9
"2012/01/16",  3.1,  3.3,  3.0
"2012/01/17",  3.3,  3.7,  3.2
"2012/01/18",  3.4,  3.7,  3.1
"2012/01/19",  3.3,  3.5,  3.1
"2012/01/20",  3.6,  3.8,  3.5
"2012/01/21",  3.8,  3.9,  3.7
"2012/01/22",  3.8,  4.1,  3.7
"2012/01/23",  3.8,  4.1,  3.6
"2012/01/24",  3.6,  3.8,  3.4
"2012/01/25",  3.5,  3.8,  3.3
"2012/01/26",  3.4,  3.7,  3.2
"2012/01/27",  3.1,  3.5,  2.9
"2012/01/28",  2.9,  3.1,  2.7
"2012/01/29",  2.8,  3.0,  2.6
"2012/01/30",  2.6,  2.9,  2.4
"2012/01/31",  2.4,  2.6,  2.2
"2012/02/01",  2.3,  2.5,  2.1
"2012/02/02",  2.3,  2.5,  2.1
"2012/02/03",  2.2,  2.4,  2.0
"2012/02/04",  2.1,  2.3,  1.9
"2012/02/05",  2.2,  2.4,  2.0
"2012/02/06",  2.4,  2.8,  2.3
"2012/02/07",  3.1,  3.5,  2.7
"2012/02/08",  3.7,  3.8,  3.5
"2012/02/09",  3.5,  3.8,  3.2
"2012/02/10",  3.4,  3.7,  3.2
"2012/02/11",  3.4,  3.7,  3.2
"2012/02/12",  3.5,  3.7,  3.2
"2012/02/13",  3.4,  3.7,  3.2
"2012/02/14",  3.8,  4.0,  3.7
"2012/02/15",  4.0,  4.3,  3.9
"2012/02/16",  4.1,  4.3,  3.9
"2012/02/17",  3.8,  4.0,  3.6
"2012/02/18",  3.9,  4.2,  3.7
"2012/02/19",  3.8,  4.2,  3.4
"2012/02/20",  3.5,  3.8,  3.2
"2012/02/21",  3.6,  4.0,  3.3
"2012/02/22",  4.1,  4.4,  3.9
"2012/02/23",  4.5,  4.7,  4.4
"2012/02/24",  4.6,  5.2,  4.3
"2012/02/25",  5.1,  5.2,  5.0
"2012/02/26",  4.9,  5.1,  4.7
"2012/02/27",  4.9,  5.3,  4.7
"2012/02/28",  4.9,  5.3,  4.6
"2012/02/29",  4.9,  5.1,  4.7
"2012/03/01",  4.8,  5.3,  4.6
"2012/03/02",  5.2,  5.3,  5.1
"2012/03/03",  5.3,  5.8,  5.1
"2012/03/04",  5.6,  5.8,  5.4
"2012/03/05",  5.4,  5.8,  5.2
"2012/03/06",  6.0,  6.5,  5.8
"2012/03/07",  6.7,  7.2,  6.5
"2012/03/08",  7.0,  7.2,  6.9
"2012/03/09",  6.8,  7.0,  6.8
"2012/03/10",  6.5,  6.8,  6.3
"2012/03/11",  6.1,  6.5,  5.8
"2012/03/12",  6.4,  6.7,  6.0
"2012/03/13",  6.3,  6.7,  5.8
"2012/03/14",  6.4,  6.9,  6.1
"2012/03/15",  6.6,  7.1,  6.2
"2012/03/16",  6.6,  7.0,  6.2
"2012/03/17",  6.7,  6.8,  6.6
"2012/03/18",  6.9,  7.2,  6.8
"2012/03/19",  7.3,  7.9,  7.0
"2012/03/20",  7.6,  7.9,  7.3
"2012/03/21",  7.6,  8.0,  7.2
"2012/03/22",  7.5,  8.0,  7.1
"2012/03/23",  7.4,  7.7,  7.2
"2012/03/24",  7.4,  7.5,  7.3
"2012/03/25",  7.2,  7.7,  6.8
"2012/03/26",  7.3,  7.7,  6.9
"2012/03/27",  7.2,  7.8,  6.7
"2012/03/28",  7.6,  8.2,  7.1
"2012/03/29",  8.0,  8.5,  7.5
"2012/03/30",  8.3,  8.6,  8.0
"2012/03/31",  8.7,  9.0,  8.6
"2012/04/01",  8.7,  9.0,  8.3
"2012/04/02",  8.7,  9.0,  8.3
"2012/04/03",  8.9,  9.2,  8.6
"2012/04/04",  9.1,  9.5,  8.8
"2012/04/05",  9.2,  9.6,  8.8
"2012/04/06",  9.6, 10.0,  9.2
"2012/04/07",  9.5, 10.0,  9.1
"2012/04/08",  9.3,  9.8,  8.8
"2012/04/09",  9.7, 10.4,  9.2
"2012/04/10", 10.3, 10.7,  9.9
"2012/04/11", 10.4, 10.7, 10.2
"2012/04/12", 10.7, 11.6, 10.3
"2012/04/13", 11.7, 12.3, 11.3
"2012/04/14", 11.7, 12.3, 11.1
"2012/04/15", 10.7, 11.1, 10.3
"2012/04/16", 10.8, 11.2, 10.4
"2012/04/17", 11.2, 11.8, 10.9
"2012/04/18", 11.7, 12.3, 11.2
"2012/04/19", 12.1, 12.5, 11.8
"2012/04/20", 12.2, 12.5, 12.0
"2012/04/21", 11.9, 12.3, 11.7
"2012/04/22", 11.4, 11.8, 11.2
"2012/04/23", 11.3, 11.7, 11.1
"2012/04/24", 12.2, 13.3, 11.6
"2012/04/25", 13.2, 13.7, 12.9
"2012/04/26", 13.5, 13.7, 13.4
"2012/04/27", 13.6, 13.7, 13.4
"2012/04/28", 13.7, 14.0, 13.4
"2012/04/29", 13.8, 14.6, 13.3
"2012/04/30", 14.5, 14.8, 14.2
"2012/05/01", 14.8, 15.2, 14.5
"2012/05/02", 15.1, 15.2, 15.0
"2012/05/03", 15.2, 15.7, 14.9
"2012/05/04", 15.6, 15.7, 15.5
"2012/05/05", 15.7, 16.6, 15.2
"2012/05/06", 16.5, 16.9, 16.1
"2012/05/07", 16.6, 17.0, 16.1
"2012/05/08", 16.8, 17.3, 16.4
"2012/05/09", 17.1, 17.3, 16.9
"2012/05/10", 16.8, 17.1, 16.5
"2012/05/11", 16.5, 17.0, 16.1
"2012/05/12", 16.4, 16.9, 15.9
"2012/05/13", 16.4, 16.9, 15.9
"2012/05/14", 16.6, 17.0, 16.2
"2012/05/15", 16.7, 17.0, 16.6
"2012/05/16", 16.9, 17.8, 16.4
"2012/05/17", 17.7, 18.1, 17.3
"2012/05/18", 17.9, 18.1, 17.6
"2012/05/19", 17.6, 18.2, 17.1
"2012/05/20", 18.0, 18.4, 17.6
"2012/05/21", 18.1, 18.4, 17.8
"2012/05/22", 17.6, 18.3, 17.0
"2012/05/23", 16.7, 17.2, 16.3
"2012/05/24", 17.3, 18.1, 16.9
"2012/05/25", 18.0, 18.2, 17.8
"2012/05/26", 18.1, 18.7, 17.7
"2012/05/27", 18.4, 18.8, 18.1
"2012/05/28", 18.7, 19.1, 18.4
"2012/05/29", 18.8, 19.5, 18.4
"2012/05/30", 18.5, 19.4, 18.2
"2012/05/31", 18.8, 19.0, 18.5
"2012/06/01", 18.9, 19.3, 18.7
"2012/06/02", 19.1, 19.5, 18.8
"2012/06/03", 19.2, 19.5, 18.9
"2012/06/04", 19.5, 20.1, 19.1
"2012/06/05", 19.8, 20.1, 19.6
"2012/06/06", 19.4, 19.8, 19.1
"2012/06/07", 18.9, 19.5, 18.4
"2012/06/08", 19.5, 20.2, 19.1
"2012/06/09", 19.9, 20.2, 19.5
"2012/06/10", 19.4, 20.0, 19.1
"2012/06/11", 19.9, 20.3, 19.6
"2012/06/12", 19.7, 20.3, 19.1
"2012/06/13", 18.6, 19.1, 18.4
"2012/06/14", 18.5, 19.0, 18.2
"2012/06/15", 18.8, 19.3, 18.5
"2012/06/16", 19.1, 19.3, 18.9
"2012/06/17", 19.1, 19.5, 18.9
"2012/06/18", 19.6, 20.3, 19.3
"2012/06/19", 20.2, 20.6, 20.0
"2012/06/20", 20.7, 21.4, 20.4
"2012/06/21", 21.1, 21.4, 20.8
"2012/06/22", 20.7, 21.2, 20.2
"2012/06/23", 20.2, 20.6, 19.9
"2012/06/24", 20.5, 21.0, 20.3
"2012/06/25", 20.5, 21.0, 20.2
"2012/06/26", 19.9, 20.3, 19.5
"2012/06/27", 20.0, 20.3, 19.7
"2012/06/28", 20.2, 20.5, 19.9
"2012/06/29", 20.4, 20.8, 20.2
"2012/06/30", 20.8, 21.3, 20.4
"2012/07/01", 21.0, 21.3, 20.8
"2012/07/02", 20.8, 21.2, 20.5
"2012/07/03", 20.8, 21.1, 20.5
"2012/07/04", 21.2, 21.9, 20.8
"2012/07/05", 21.9, 22.1, 21.7
"2012/07/06", 22.0, 22.4, 21.8
"2012/07/07", 22.1, 22.4, 21.8
"2012/07/08", 21.4, 21.8, 21.2
"2012/07/09", 21.4, 22.0, 21.1
"2012/07/10", 22.2, 23.1, 21.7
"2012/07/11", 23.0, 23.8, 22.5
"2012/07/12", 23.4, 23.8, 23.1
"2012/07/13", 23.0, 23.4, 22.7
"2012/07/14", 23.3, 23.9, 23.0
"2012/07/15", 23.8, 24.6, 23.4
"2012/07/16", 24.5, 25.3, 23.9
"2012/07/17", 25.2, 26.3, 24.6
"2012/07/18", 25.8, 26.3, 25.3
"2012/07/19", 25.7, 26.2, 25.3
"2012/07/20", 24.4, 25.9, 23.2
"2012/07/21", 22.5, 23.2, 22.1
"2012/07/22", 22.1, 22.6, 21.8
"2012/07/23", 22.1, 23.1, 21.5
"2012/07/24", 23.2, 23.8, 22.8
"2012/07/25", 23.9, 24.7, 23.4
"2012/07/26", 24.8, 25.7, 24.2
"2012/07/27", 25.7, 26.5, 25.2
"2012/07/28", 26.3, 27.0, 25.7
"2012/07/29", 26.6, 27.1, 26.2
"2012/07/30", 26.8, 27.4, 26.3
"2012/07/31", 26.8, 27.3, 26.3
"2012/08/01", 26.9, 27.3, 26.5
"2012/08/02", 26.9, 27.6, 26.4
"2012/08/03", 27.2, 27.7, 26.7
"2012/08/04", 27.3, 27.8, 26.8
"2012/08/05", 27.4, 27.7, 26.9
"2012/08/06", 27.1, 27.7, 26.6
"2012/08/07", 26.3, 26.8, 25.7
"2012/08/08", 26.3, 26.8, 25.9
"2012/08/09", 26.0, 26.5, 25.5
"2012/08/10", 25.9, 26.3, 25.4
"2012/08/11"," * "," * "," * "
"2012/08/12"," * "," * "," * "
"2012/08/13"," * "," * "," * "
"2012/08/14"," * "," * "," * "
"2012/08/15", 25.9, 26.4, 25.5
"2012/08/16", 26.3, 27.1, 25.8
"2012/08/17", 26.9, 27.4, 26.4
"2012/08/18", 27.0, 27.4, 26.7
"2012/08/19", 26.5, 26.9, 26.2
"2012/08/20", 26.4, 27.0, 25.9
"2012/08/21", 26.8, 27.5, 26.3
"2012/08/22", 27.3, 27.9, 26.8
"2012/08/23", 27.5, 27.9, 27.1
"2012/08/24", 27.6, 28.0, 27.1
"2012/08/25", 27.6, 28.0, 27.1
"2012/08/26", 27.6, 28.0, 27.2
"2012/08/27", 27.6, 28.1, 27.2
"2012/08/28", 27.7, 28.1, 27.3
"2012/08/29", 27.5, 27.9, 27.1
"2012/08/30", 27.5, 28.0, 27.1
"2012/08/31", 27.7, 28.0, 27.3
"2012/09/01", 27.6, 28.0, 27.2
"2012/09/02", 27.2, 27.8, 26.7
"2012/09/03", 26.2, 26.7, 25.9
"2012/09/04", 26.0, 26.4, 25.6
"2012/09/05", 26.2, 26.8, 25.7
"2012/09/06", 26.4, 26.8, 25.9
"2012/09/07", 26.1, 26.6, 25.6
"2012/09/08", 25.9, 26.3, 25.5
"2012/09/09", 25.7, 26.2, 25.2
"2012/09/10", 25.8, 26.3, 25.4
"2012/09/11", 26.0, 26.5, 25.5
"2012/09/12", 26.0, 26.5, 25.6
"2012/09/13", 25.7, 26.2, 25.2
"2012/09/14", 25.9, 26.3, 25.5
"2012/09/15", 25.9, 26.3, 25.5
"2012/09/16", 25.4, 25.9, 25.0
"2012/09/17", 25.4, 25.7, 25.0
"2012/09/18", 25.3, 25.7, 25.0
"2012/09/19", 25.2, 25.5, 24.8
"2012/09/20", 25.1, 25.4, 24.8
"2012/09/21", 24.7, 25.3, 24.5
"2012/09/22", 24.0, 24.5, 23.8
"2012/09/23", 23.2, 23.9, 22.4
"2012/09/24", 22.3, 22.7, 21.9
"2012/09/25", 22.3, 22.7, 21.9
"2012/09/26", 21.6, 21.9, 21.3
"2012/09/27", 21.3, 21.7, 21.0
"2012/09/28", 20.9, 21.2, 20.7
"2012/09/29", 21.1, 21.7, 20.8
"2012/09/30", 21.7, 22.2, 21.4
"2012/10/01", 22.2, 22.6, 21.9
"2012/10/02", 22.2, 22.5, 22.0
"2012/10/03", 21.7, 22.2, 21.3
"2012/10/04", 20.9, 21.3, 20.5
"2012/10/05", 21.1, 21.5, 20.8
"2012/10/06", 21.4, 21.7, 21.2
"2012/10/07", 21.2, 21.7, 20.7
"2012/10/08", 20.3, 20.7, 20.0
"2012/10/09", 19.7, 20.1, 19.5
"2012/10/10", 19.2, 19.6, 18.9
"2012/10/11", 19.4, 19.6, 19.2
"2012/10/12", 19.4, 19.6, 19.1
"2012/10/13", 19.1, 19.6, 18.7
"2012/10/14", 18.7, 19.1, 18.4
"2012/10/15", 18.5, 18.9, 18.3
"2012/10/16", 18.6, 18.9, 18.3
"2012/10/17", 18.0, 18.5, 17.7
"2012/10/18", 18.1, 18.2, 18.0
"2012/10/19", 17.5, 18.0, 17.2
"2012/10/20", 16.8, 17.4, 16.4
"2012/10/21", 16.6, 17.0, 16.3
"2012/10/22", 16.8, 17.2, 16.4
"2012/10/23", 17.2, 17.5, 17.0
"2012/10/24", 17.0, 17.5, 16.7
"2012/10/25", 16.6, 16.9, 16.4
"2012/10/26", 16.3, 16.7, 16.0
"2012/10/27", 16.3, 16.5, 16.1
"2012/10/28", 16.1, 16.4, 15.9
"2012/10/29", 16.2, 16.5, 15.9
"2012/10/30", 15.8, 16.5, 15.5
"2012/10/31", 15.2, 15.7, 15.0
"2012/11/01", 14.8, 15.1, 14.5
"2012/11/02", 14.6, 15.0, 14.3
"2012/11/03", 14.3, 14.6, 14.1
"2012/11/04", 13.7, 14.3, 13.4
"2012/11/05", 13.3, 13.7, 13.0
"2012/11/06", 13.7, 14.0, 13.5
"2012/11/07", 14.2, 14.6, 14.0
"2012/11/08", 14.0, 14.6, 13.6
"2012/11/09", 13.7, 14.0, 13.4
"2012/11/10", 13.2, 13.7, 12.9
"2012/11/11", 13.2, 13.4, 13.0
"2012/11/12", 13.4, 13.8, 13.2
"2012/11/13", 13.5, 13.7, 13.3
"2012/11/14", 13.1, 13.6, 12.8
"2012/11/15", 12.3, 13.0, 11.9
"2012/11/16", 11.5, 12.1, 11.1
"2012/11/17", 11.3, 11.5, 11.1
"2012/11/18", 11.5, 11.7, 11.3
"2012/11/19", 11.2, 11.7, 10.9
"2012/11/20", 10.5, 10.9, 10.1
"2012/11/21", 10.4, 10.6, 10.1
"2012/11/22", 10.3, 10.5, 10.1
"2012/11/23", 10.0, 10.5,  9.8
"2012/11/24", 10.0, 10.1,  9.9
"2012/11/25",  9.6, 10.1,  9.3
"2012/11/26",  9.2,  9.5,  9.0
"2012/11/27",  9.3,  9.5,  9.1
"2012/11/28",  8.9,  9.4,  8.7
"2012/11/29",  8.6,  8.9,  8.3
"2012/11/30",  8.9,  9.2,  8.8
"2012/12/01",  9.0,  9.2,  8.6
"2012/12/02",  8.0,  8.7,  7.7
"2012/12/03",  7.9,  8.2,  7.8
"2012/12/04",  8.3,  8.5,  8.2
"2012/12/05",  8.1,  8.5,  7.8
"2012/12/06",  8.3,  8.6,  8.1
"2012/12/07",  8.0,  8.6,  7.7
"2012/12/08",  7.5,  7.9,  7.2
"2012/12/09",  7.0,  7.6,  6.7
"2012/12/10",  6.3,  6.8,  6.0
"2012/12/11",  5.8,  6.2,  5.5
"2012/12/12",  5.6,  6.0,  5.3
"2012/12/13",  5.3,  5.7,  5.0
"2012/12/14",  5.0,  5.3,  4.7
"2012/12/15",  5.1,  5.6,  4.9
"2012/12/16",  6.0,  6.6,  5.5
"2012/12/17",  6.3,  6.6,  6.0
"2012/12/18",  6.5,  7.0,  6.3
"2012/12/19",  6.8,  7.0,  6.5
"2012/12/20",  5.9,  6.6,  5.5
"2012/12/21",  5.3,  5.7,  5.0
"2012/12/22",  5.4,  5.4,  5.3
"2012/12/23",  5.1,  5.4,  4.9
"2012/12/24",  4.8,  5.2,  4.6
"2012/12/25",  4.4,  4.8,  4.2
"2012/12/26",  4.1,  4.4,  3.9
"2012/12/27",  3.7,  4.1,  3.4
"2012/12/28",  3.3,  3.5,  3.1
"2012/12/29",  3.8,  4.4,  3.3
"2012/12/30",  4.6,  5.1,  4.4
"2012/12/31",  5.2,  5.5,  5.1
